This is the latest recevied weather packets stored in our database for station/object KU4DD. If no packets are shown the sender has not sent any weather packets the latest 10 day(s).
| Time | Temp. | Humidity | Pressure | Rain* | Wind** | Luminosity | Snow |
|---|---|---|---|---|---|---|---|
| 1777505393 | 22.78° C | 57% | 1004.7 hPa | 0 mm | - | - | - |
| 1777502551 | 22.78° C | 56% | 1005.1 hPa | 0 mm | - | - | - |
| 1777500047 | 22.22° C | 55% | 1005.4 hPa | 0 mm | - | - | - |
| 1777499425 | 22.22° C | 56% | 1005.4 hPa | 0 mm | - | - | - |
| 1777498158 | 22.78° C | 56% | 1005.4 hPa | 0 mm | - | - | - |
| 1777494696 | 22.22° C | 57% | 1006.4 hPa | 0 mm | - | - | - |
| 1777494386 | 22.22° C | 57% | 1006.4 hPa | 0 mm | - | - | - |
| 1777492809 | 21.67° C | 59% | 1006.8 hPa | 0 mm | - | - | - |
| 1777492495 | 21.67° C | 58% | 1006.8 hPa | 0 mm | - | - | - |
| 1777491866 | 21.67° C | 58% | 1007.1 hPa | 0 mm | - | - | - |
| 1777489667 | 22.22° C | 100% | 1007.8 hPa | 0 mm | - | - | - |
| 1777488602 | 22.22° C | 100% | 1008.1 hPa | 0 mm | - | - | - |
| 1777486081 | 21.67° C | 100% | 1008.5 hPa | 0 mm | - | - | - |
| 1777483601 | 22.22° C | 25% | 1009.1 hPa | 0 mm | - | - | - |
| 1777482351 | 22.22° C | 88% | 1009.1 hPa | 0 mm | - | - | - |
| 1777481097 | 21.67° C | 21% | 1009.5 hPa | 0 mm | - | - | - |
| 1777479197 | 22.22° C | 21% | 1010.5 hPa | 0 mm | - | - | - |
| 1777478885 | 22.22° C | 21% | 1010.5 hPa | 0 mm | - | - | - |
| 1777478573 | 21.67° C | 88% | 1010.5 hPa | 0 mm | - | - | - |
| 1777475445 | 23.89° C | 100% | 1011.5 hPa | 0 mm | - | - | - |
| 1777474825 | 31.67° C | 43% | 1011.5 hPa | 0 mm | - | - | - |
| 1777466035 | 21.11° C | 60% | 1012.9 hPa | 0 mm | - | - | - |
| 1777463885 | 20.56° C | 55% | 1012.9 hPa | 0 mm | - | - | - |
| 1777462052 | 20.56° C | 59% | 1012.9 hPa | 0 mm | - | - | - |
| 1777461133 | 20.56° C | 59% | 1012.5 hPa | 0 mm | - | - | - |
* Rain latest hour (hover to see other rain measurements)
** Current wind speed in m/s (hover to see current wind gust speed)